| time (UTC) | temp F | wind direction | speed MPH | gust MPH | rain 1hr in | rain 24hr in | rain mn in | humidity % | barometer mb |
| 20260906222432 | 46 | 0 | 0.0 | 0.0 | 0.00 | 0.00 | 0.00 | 94 | 1026.3 |
| 20260906221932 | 46 | 0 | 0.0 | 0.0 | 0.00 | 0.00 | 0.00 | 94 | 1026.3 |
| 20260906221433 | 46 | 0 | 0.0 | 0.0 | 0.00 | 0.00 | 0.00 | 94 | 1026.2 |
| 20260906220432 | 46 | 0 | 0.0 | 0.0 | 0.00 | 0.00 | 0.00 | 94 | 1026.2 |
| 20260906215933 | 46 | 0 | 0.0 | 0.0 | 0.00 | 0.00 | 0.00 | 94 | 1026.3 |
| 20260906215433 | 46 | 0 | 0.0 | 0.0 | 0.00 | 0.00 | 0.00 | 94 | 1026.3 |
| 20260906214932 | 46 | 0 | 0.0 | 0.0 | 0.00 | 0.00 | 0.00 | 94 | 1026.2 |
| 20260906214432 | 46 | 0 | 0.0 | 0.0 | 0.00 | 0.00 | 0.00 | 94 | 1026.3 |
| 20260906213932 | 46 | 0 | 0.0 | 0.0 | 0.00 | 0.00 | 0.00 | 94 | 1026.3 |
| 20260906212432 | 46 | 0 | 0.0 | 0.0 | 0.00 | 0.00 | 0.00 | 94 | 1026.3 |
| 20260906211933 | 47 | 0 | 0.0 | 0.0 | 0.00 | 0.00 | 0.00 | 94 | 1026.3 |
| 20260906211432 | 47 | 0 | 0.0 | 0.0 | 0.00 | 0.01 | 0.00 | 93 | 1026.4 |
| 20260906210932 | 47 | 0 | 0.0 | 0.0 | 0.00 | 0.01 | 0.00 | 93 | 1026.3 |
| 20260906210432 | 47 | 0 | 0.0 | 0.0 | 0.00 | 0.01 | 0.00 | 93 | 1026.3 |
| 20260906205932 | 47 | 0 | 0.0 | 0.0 | 0.00 | 0.01 | 0.00 | 93 | 1026.3 |
| 20260906205432 | 48 | 0 | 0.0 | 0.0 | 0.00 | 0.02 | 0.00 | 94 | 1026.2 |
| 20260906203433 | 47 | 0 | 0.0 | 0.0 | 0.00 | 0.02 | 0.00 | 93 | 1026.1 |
| 20260906202933 | 47 | 0 | 0.0 | 0.0 | 0.00 | 0.02 | 0.00 | 93 | 1026.1 |
| 20260906202435 | 47 | 0 | 0.0 | 0.0 | 0.00 | 0.02 | 0.00 | 93 | 1026.1 |
| 20260906201433 | 47 | 0 | 0.0 | 0.0 | 0.00 | 0.02 | 0.00 | 92 | 1026.1 |
| 20260906200933 | 48 | 0 | 0.0 | 0.0 | 0.00 | 0.02 | 0.00 | 92 | 1026.1 |
| 20260906195933 | 48 | 0 | 0.0 | 0.0 | 0.00 | 0.02 | 0.00 | 92 | 1026.1 |
| 20260906195432 | 48 | 0 | 0.0 | 0.0 | 0.00 | 0.02 | 0.00 | 92 | 1026.0 |
| 20260906194932 | 49 | 0 | 0.0 | 0.0 | 0.00 | 0.02 | 0.00 | 92 | 1026.0 |
| 20260906194432 | 49 | 0 | 0.0 | 0.0 | 0.00 | 0.02 | 0.00 | 91 | 1026.1 |
| 20260906193933 | 49 | 0 | 0.0 | 0.0 | 0.00 | 0.02 | 0.00 | 91 | 1026.0 |
| 20260906193433 | 49 | 0 | 0.0 | 0.0 | 0.00 | 0.02 | 0.00 | 91 | 1025.9 |
| 20260906192934 | 49 | 0 | 0.0 | 0.0 | 0.00 | 0.02 | 0.00 | 91 | 1026.0 |
| 20260906192433 | 49 | 0 | 0.0 | 0.0 | 0.00 | 0.02 | 0.00 | 91 | 1026.0 |
| 20260906191932 | 49 | 0 | 0.0 | 0.0 | 0.00 | 0.02 | 0.00 | 90 | 1026.0 |
| 20260906191432 | 49 | 0 | 0.0 | 0.0 | 0.00 | 0.02 | 0.00 | 90 | 1026.1 |
| 20260906190933 | 50 | 0 | 0.0 | 0.0 | 0.00 | 0.02 | 0.00 | 90 | 1026.0 |
| 20260906185933 | 50 | 0 | 0.0 | 0.0 | 0.00 | 0.02 | 0.00 | 90 | 1025.9 |
| 20260906185433 | 50 | 0 | 0.0 | 0.0 | 0.00 | 0.02 | 0.00 | 89 | 1025.9 |
| 20260906184933 | 50 | 0 | 0.0 | 0.0 | 0.00 | 0.02 | 0.00 | 89 | 1025.9 |
| 20260906184434 | 51 | 0 | 0.0 | 0.0 | 0.00 | 0.02 | 0.00 | 88 | 1025.9 |
| 20260906183433 | 51 | 0 | 0.0 | 0.0 | 0.00 | 0.02 | 0.00 | 87 | 1025.8 |
| 20260906182933 | 52 | 0 | 0.0 | 0.0 | 0.00 | 0.02 | 0.00 | 87 | 1025.8 |
| 20260906182434 | 52 | 0 | 0.0 | 0.0 | 0.00 | 0.02 | 0.00 | 86 | 1025.8 |
| 20260906181933 | 52 | 0 | 0.0 | 0.0 | 0.00 | 0.02 | 0.00 | 85 | 1025.7 |
| 20260906181434 | 53 | 0 | 0.0 | 0.0 | 0.00 | 0.02 | 0.00 | 85 | 1025.6 |
| 20260906180933 | 53 | 0 | 0.0 | 0.0 | 0.00 | 0.02 | 0.00 | 84 | 1025.6 |
| 20260906180433 | 53 | 0 | 0.0 | 0.0 | 0.00 | 0.02 | 0.00 | 83 | 1025.6 |
| 20260906175933 | 54 | 0 | 0.0 | 0.0 | 0.00 | 0.02 | 0.00 | 82 | 1025.5 |
| 20260906175433 | 54 | 0 | 0.0 | 0.0 | 0.00 | 0.02 | 0.00 | 82 | 1025.4 |
| 20260906174933 | 55 | 0 | 0.0 | 0.0 | 0.00 | 0.02 | 0.00 | 81 | 1025.3 |
| 20260906174433 | 55 | 0 | 0.0 | 0.0 | 0.00 | 0.02 | 0.00 | 80 | 1025.3 |
| 20260906172933 | 56 | 0 | 0.0 | 0.0 | 0.00 | 0.02 | 0.00 | 77 | 1025.2 |
| 20260906172433 | 57 | 0 | 0.0 | 0.0 | 0.00 | 0.02 | 0.00 | 76 | 1025.2 |
| 20260906171934 | 58 | 0 | 0.0 | 0.0 | 0.00 | 0.02 | 0.00 | 75 | 1025.2 |
| 20260906171433 | 58 | 0 | 0.0 | 0.0 | 0.00 | 0.02 | 0.00 | 74 | 1025.1 |
| 20260906170933 | 59 | 0 | 0.0 | 0.0 | 0.00 | 0.02 | 0.00 | 73 | 1025.1 |
| 20260906170433 | 60 | 0 | 0.0 | 0.0 | 0.00 | 0.02 | 0.00 | 72 | 1025.1 |
| 20260906165933 | 60 | 0 | 0.0 | 0.0 | 0.00 | 0.02 | 0.00 | 71 | 1025.1 |
| 20260906165433 | 60 | 0 | 0.0 | 0.0 | 0.00 | 0.02 | 0.00 | 70 | 1025.1 |
| 20260906164933 | 60 | 0 | 0.0 | 0.0 | 0.00 | 0.02 | 0.00 | 69 | 1025.0 |
| 20260906163933 | 62 | 0 | 0.0 | 0.0 | 0.00 | 0.02 | 0.00 | 67 | 1024.9 |
| 20260906163435 | 62 | 0 | 0.0 | 0.0 | 0.00 | 0.02 | 0.00 | 65 | 1024.9 |
| 20260906162933 | 63 | 0 | 0.0 | 0.0 | 0.00 | 0.02 | 0.00 | 63 | 1024.9 |
| 20260906161934 | 63 | 0 | 0.0 | 0.0 | 0.00 | 0.02 | 0.00 | 62 | 1024.8 |
| 20260906160933 | 64 | 0 | 0.0 | 0.0 | 0.00 | 0.02 | 0.00 | 60 | 1024.8 |
| 20260906160433 | 64 | 0 | 0.0 | 0.0 | 0.00 | 0.02 | 0.00 | 60 | 1024.8 |
| 20260906155933 | 64 | 0 | 0.0 | 0.0 | 0.00 | 0.02 | 0.00 | 61 | 1024.9 |
| 20260906154933 | 64 | 0 | 0.0 | 0.0 | 0.00 | 0.02 | 0.00 | 60 | 1024.8 |
| 20260906154433 | 64 | 0 | 0.0 | 0.0 | 0.00 | 0.02 | 0.00 | 59 | 1024.7 |
| 20260906153934 | 64 | 0 | 0.0 | 0.0 | 0.00 | 0.02 | 0.00 | 61 | 1024.8 |
| 20260906152934 | 64 | 0 | 0.0 | 0.0 | 0.00 | 0.02 | 0.00 | 62 | 1024.7 |
| 20260906151933 | 65 | 0 | 0.0 | 0.0 | 0.00 | 0.02 | 0.00 | 61 | 1024.7 |
| 20260906151433 | 66 | 0 | 0.0 | 0.0 | 0.00 | 0.02 | 0.00 | 60 | 1024.7 |
| 20260906150933 | 66 | 0 | 0.0 | 0.0 | 0.00 | 0.02 | 0.00 | 58 | 1024.5 |
| 20260906150434 | 66 | 0 | 0.0 | 0.0 | 0.00 | 0.02 | 0.00 | 58 | 1024.5 |
| 20260906145934 | 66 | 0 | 0.0 | 0.0 | 0.00 | 0.02 | 0.00 | 59 | 1024.5 |
| 20260906145434 | 66 | 0 | 0.0 | 0.0 | 0.00 | 0.02 | 0.00 | 60 | 1024.4 |
| 20260906144934 | 67 | 0 | 0.0 | 0.0 | 0.00 | 0.02 | 0.00 | 60 | 1024.4 |
| 20260906144433 | 67 | 0 | 0.0 | 0.0 | 0.00 | 0.02 | 0.00 | 58 | 1024.3 |
| 20260906143933 | 67 | 0 | 0.0 | 0.0 | 0.00 | 0.02 | 0.00 | 57 | 1024.3 |
| 20260906143434 | 67 | 0 | 0.0 | 0.0 | 0.00 | 0.02 | 0.00 | 57 | 1024.3 |
| 20260906141933 | 67 | 0 | 0.0 | 0.0 | 0.00 | 0.02 | 0.00 | 57 | 1024.4 |
| 20260906141434 | 68 | 0 | 0.0 | 0.0 | 0.00 | 0.02 | 0.00 | 55 | 1024.4 |
| 20260906140934 | 67 | 0 | 0.0 | 0.0 | 0.00 | 0.02 | 0.00 | 61 | 1024.4 |
| 20260906140434 | 65 | 0 | 0.0 | 0.0 | 0.00 | 0.02 | 0.00 | 62 | 1024.4 |
| 20260906135933 | 65 | 0 | 0.0 | 0.0 | 0.00 | 0.02 | 0.00 | 62 | 1024.3 |
| 20260906135433 | 65 | 0 | 0.0 | 0.0 | 0.00 | 0.02 | 0.00 | 60 | 1024.3 |
| 20260906134933 | 65 | 0 | 0.0 | 0.0 | 0.00 | 0.02 | 0.00 | 62 | 1024.3 |
| 20260906134434 | 64 | 0 | 0.0 | 0.0 | 0.00 | 0.02 | 0.00 | 61 | 1024.4 |
| 20260906133934 | 65 | 0 | 0.0 | 0.0 | 0.00 | 0.02 | 0.00 | 62 | 1024.4 |
| 20260906133434 | 65 | 0 | 0.0 | 0.0 | 0.00 | 0.02 | 0.00 | 60 | 1024.3 |
| 20260906132434 | 67 | 0 | 0.0 | 0.0 | 0.00 | 0.02 | 0.00 | 58 | 1024.2 |
| 20260906131934 | 69 | 0 | 0.0 | 0.0 | 0.00 | 0.02 | 0.00 | 55 | 1024.0 |
| 20260906131435 | 69 | 0 | 0.0 | 0.0 | 0.00 | 0.02 | 0.00 | 57 | 1024.0 |
| 20260906130934 | 69 | 0 | 0.0 | 0.0 | 0.00 | 0.02 | 0.00 | 58 | 1024.0 |
| 20260906130434 | 68 | 0 | 0.0 | 0.0 | 0.00 | 0.02 | 0.00 | 58 | 1024.1 |
| 20260906125934 | 68 | 0 | 0.0 | 0.0 | 0.00 | 0.02 | 0.00 | 59 | 1024.1 |
| 20260906125434 | 68 | 0 | 0.0 | 0.0 | 0.00 | 0.02 | 0.00 | 59 | 1024.1 |
| 20260906124934 | 67 | 0 | 0.0 | 0.0 | 0.00 | 0.02 | 0.00 | 60 | 1024.1 |
| 20260906124434 | 66 | 0 | 0.0 | 0.0 | 0.00 | 0.02 | 0.00 | 61 | 1024.0 |
| 20260906123434 | 68 | 0 | 0.0 | 0.0 | 0.00 | 0.02 | 0.00 | 58 | 1024.0 |
| 20260906122934 | 69 | 0 | 0.0 | 0.0 | 0.00 | 0.02 | 0.00 | 61 | 1023.9 |
| 20260906122435 | 67 | 0 | 0.0 | 0.0 | 0.00 | 0.02 | 0.00 | 60 | 1024.0 |
| 20260906121934 | 66 | 0 | 0.0 | 0.0 | 0.00 | 0.02 | 0.00 | 62 | 1023.9 |
| 20260906120934 | 67 | 0 | 0.0 | 0.0 | 0.00 | 0.02 | 0.00 | 61 | 1023.9 |
| 20260906120434 | 67 | 0 | 0.0 | 0.0 | 0.00 | 0.02 | 0.00 | 64 | 1023.9 |
| 20260906115934 | 66 | 0 | 0.0 | 0.0 | 0.00 | 0.02 | 0.00 | 63 | 1023.9 |
| 20260906115434 | 66 | 0 | 0.0 | 0.0 | 0.00 | 0.02 | 0.00 | 63 | 1024.0 |
| 20260906114934 | 67 | 0 | 0.0 | 0.0 | 0.00 | 0.02 | 0.00 | 61 | 1024.0 |
| 20260906113934 | 68 | 0 | 0.0 | 0.0 | 0.00 | 0.02 | 0.00 | 61 | 1023.9 |
| 20260906112935 | 67 | 0 | 0.0 | 0.0 | 0.00 | 0.02 | 0.00 | 64 | 1023.9 |
| 20260906112435 | 65 | 0 | 0.0 | 0.0 | 0.00 | 0.02 | 0.00 | 67 | 1023.9 |
| 20260906111434 | 64 | 0 | 0.0 | 0.0 | 0.00 | 0.02 | 0.00 | 65 | 1023.9 |
| 20260906110934 | 64 | 0 | 0.0 | 0.0 | 0.00 | 0.02 | 0.00 | 67 | 1023.9 |
| 20260906110434 | 64 | 0 | 0.0 | 0.0 | 0.00 | 0.02 | 0.00 | 64 | 1023.9 |
| 20260906105935 | 65 | 0 | 0.0 | 0.0 | 0.00 | 0.02 | 0.00 | 64 | 1023.9 |
| 20260906105435 | 67 | 0 | 0.0 | 0.0 | 0.00 | 0.02 | 0.00 | 64 | 1023.9 |
| 20260906104934 | 66 | 0 | 0.0 | 0.0 | 0.00 | 0.02 | 0.00 | 64 | 1023.9 |
| 20260906103934 | 65 | 0 | 0.0 | 0.0 | 0.00 | 0.02 | 0.00 | 66 | 1023.8 |
| 20260906103435 | 65 | 0 | 0.0 | 0.0 | 0.00 | 0.02 | 0.00 | 66 | 1023.9 |
| 20260906102935 | 63 | 0 | 0.0 | 0.0 | 0.00 | 0.02 | 0.00 | 70 | 1023.9 |
| 20260906102435 | 63 | 0 | 0.0 | 0.0 | 0.00 | 0.02 | 0.00 | 68 | 1023.8 |
| 20260906101934 | 64 | 0 | 0.0 | 0.0 | 0.00 | 0.02 | 0.00 | 68 | 1023.8 |
| 20260906101435 | 65 | 0 | 0.0 | 0.0 | 0.00 | 0.02 | 0.00 | 66 | 1023.6 |
| 20260906100934 | 67 | 0 | 0.0 | 0.0 | 0.00 | 0.02 | 0.00 | 66 | 1023.6 |
| 20260906100435 | 66 | 0 | 0.0 | 0.0 | 0.00 | 0.02 | 0.00 | 68 | 1023.6 |
| 20260906095935 | 64 | 0 | 0.0 | 0.0 | 0.00 | 0.02 | 0.00 | 74 | 1023.7 |
| 20260906095434 | 62 | 0 | 0.0 | 0.0 | 0.00 | 0.02 | 0.00 | 72 | 1023.7 |
| 20260906094434 | 62 | 0 | 0.0 | 0.0 | 0.00 | 0.02 | 0.00 | 70 | 1023.5 |
| 20260906093934 | 62 | 0 | 0.0 | 0.0 | 0.00 | 0.02 | 0.00 | 72 | 1023.6 |
| 20260906093434 | 62 | 0 | 0.0 | 0.0 | 0.00 | 0.02 | 0.00 | 71 | 1023.5 |
| 20260906092935 | 63 | 0 | 0.0 | 0.0 | 0.00 | 0.02 | 0.00 | 69 | 1023.5 |
| 20260906092435 | 64 | 0 | 0.0 | 0.0 | 0.00 | 0.02 | 0.00 | 70 | 1023.4 |
| 20260906091934 | 64 | 0 | 0.0 | 0.0 | 0.00 | 0.02 | 0.00 | 68 | 1023.5 |
| 20260906091434 | 65 | 0 | 0.0 | 0.0 | 0.00 | 0.02 | 0.00 | 69 | 1023.5 |
| 20260906090934 | 63 | 0 | 0.0 | 0.0 | 0.00 | 0.02 | 0.00 | 71 | 1023.5 |
| 20260906090434 | 63 | 0 | 0.0 | 0.0 | 0.00 | 0.02 | 0.00 | 71 | 1023.6 |
| 20260906085934 | 64 | 0 | 0.0 | 0.0 | 0.00 | 0.02 | 0.00 | 70 | 1023.5 |
| 20260906084935 | 63 | 0 | 0.0 | 0.0 | 0.00 | 0.02 | 0.00 | 71 | 1023.5 |
| 20260906083935 | 62 | 0 | 0.0 | 0.0 | 0.00 | 0.02 | 0.00 | 74 | 1023.5 |
| 20260906083435 | 61 | 0 | 0.0 | 0.0 | 0.00 | 0.02 | 0.00 | 75 | 1023.4 |
| 20260906082935 | 60 | 0 | 0.0 | 0.0 | 0.00 | 0.02 | 0.00 | 76 | 1023.5 |
| 20260906082435 | 60 | 0 | 0.0 | 0.0 | 0.00 | 0.02 | 0.00 | 77 | 1023.5 |
| 20260906081934 | 59 | 0 | 0.0 | 0.0 | 0.00 | 0.02 | 0.00 | 77 | 1023.4 |
| 20260906080435 | 59 | 0 | 0.0 | 0.0 | 0.00 | 0.02 | 0.00 | 77 | 1023.2 |
| 20260906075935 | 59 | 0 | 0.0 | 0.0 | 0.00 | 0.02 | 0.00 | 77 | 1023.1 |
| 20260906075435 | 59 | 0 | 0.0 | 0.0 | 0.00 | 0.02 | 0.00 | 77 | 1023.0 |
| 20260906074935 | 59 | 0 | 0.0 | 0.0 | 0.00 | 0.02 | 0.00 | 76 | 1022.9 |
| 20260906074435 | 59 | 0 | 0.0 | 0.0 | 0.00 | 0.02 | 0.00 | 76 | 1022.9 |
| 20260906073936 | 60 | 0 | 0.0 | 0.0 | 0.00 | 0.02 | 0.00 | 76 | 1022.8 |
| 20260906072935 | 60 | 0 | 0.0 | 0.0 | 0.00 | 0.02 | 0.00 | 75 | 1022.8 |
| 20260906072435 | 60 | 0 | 0.0 | 0.0 | 0.00 | 0.02 | 0.00 | 75 | 1022.7 |
| 20260906071435 | 59 | 0 | 0.0 | 0.0 | 0.00 | 0.02 | 0.00 | 75 | 1022.6 |
| 20260906070935 | 59 | 0 | 0.0 | 0.0 | 0.00 | 0.02 | 0.00 | 76 | 1022.7 |
| 20260906070435 | 59 | 0 | 0.0 | 0.0 | 0.00 | 0.02 | 0.00 | 76 | 1022.6 |
| 20260906064936 | 59 | 0 | 0.0 | 0.0 | 0.00 | 0.02 | 0.00 | 78 | 1022.3 |
| 20260906064435 | 58 | 0 | 0.0 | 0.0 | 0.00 | 0.02 | 0.00 | 78 | 1022.3 |
| 20260906063935 | 58 | 0 | 0.0 | 0.0 | 0.00 | 0.02 | 0.00 | 81 | 1022.2 |
| 20260906063435 | 58 | 0 | 0.0 | 0.0 | 0.00 | 0.02 | 0.00 | 81 | 1022.1 |
| 20260906062936 | 58 | 0 | 0.0 | 0.0 | 0.00 | 0.02 | 0.00 | 82 | 1022.1 |
| 20260906062435 | 57 | 0 | 0.0 | 0.0 | 0.00 | 0.02 | 0.00 | 82 | 1021.9 |
| 20260906061935 | 57 | 0 | 0.0 | 0.0 | 0.00 | 0.02 | 0.00 | 82 | 1021.9 |
| 20260906061435 | 57 | 0 | 0.0 | 0.0 | 0.00 | 0.02 | 0.00 | 83 | 1021.9 |
| 20260906060435 | 57 | 0 | 0.0 | 0.0 | 0.00 | 0.02 | 0.00 | 84 | 1021.7 |
| 20260906055936 | 57 | 0 | 0.0 | 0.0 | 0.00 | 0.02 | 0.00 | 85 | 1021.8 |
| 20260906055436 | 56 | 0 | 0.0 | 0.0 | 0.00 | 0.02 | 0.00 | 85 | 1021.7 |
| 20260906054935 | 56 | 0 | 0.0 | 0.0 | 0.00 | 0.02 | 0.00 | 86 | 1021.7 |
| 20260906054435 | 56 | 0 | 0.0 | 0.0 | 0.00 | 0.02 | 0.00 | 86 | 1021.6 |
| 20260906053935 | 56 | 0 | 0.0 | 0.0 | 0.00 | 0.02 | 0.00 | 87 | 1021.6 |
| 20260906053436 | 55 | 0 | 0.0 | 0.0 | 0.00 | 0.02 | 0.00 | 87 | 1021.5 |
| 20260906052936 | 55 | 0 | 0.0 | 0.0 | 0.00 | 0.02 | 0.00 | 88 | 1021.5 |
| 20260906052437 | 55 | 0 | 0.0 | 0.0 | 0.00 | 0.02 | 0.00 | 88 | 1021.4 |
| 20260906051935 | 54 | 0 | 0.0 | 0.0 | 0.00 | 0.02 | 0.00 | 88 | 1021.4 |
| 20260906051436 | 54 | 0 | 0.0 | 0.0 | 0.00 | 0.02 | 0.00 | 88 | 1021.4 |
| 20260906050436 | 54 | 0 | 0.0 | 0.0 | 0.00 | 0.02 | 0.00 | 88 | 1021.2 |
| 20260906045936 | 54 | 0 | 0.0 | 0.0 | 0.00 | 0.02 | 0.00 | 88 | 1021.1 |
| 20260906045435 | 54 | 0 | 0.0 | 0.0 | 0.00 | 0.02 | 0.00 | 88 | 1021.1 |
| 20260906044435 | 54 | 0 | 0.0 | 0.0 | 0.00 | 0.03 | 0.00 | 89 | 1021.0 |
| 20260906043935 | 54 | 0 | 0.0 | 0.0 | 0.00 | 0.03 | 0.00 | 89 | 1021.0 |
| 20260906043435 | 54 | 0 | 0.0 | 0.0 | 0.00 | 0.03 | 0.00 | 89 | 1021.0 |
| 20260906042935 | 54 | 0 | 0.0 | 0.0 | 0.00 | 0.03 | 0.00 | 89 | 1020.9 |
| 20260906041936 | 54 | 0 | 0.0 | 0.0 | 0.00 | 0.03 | 0.00 | 89 | 1020.9 |
| 20260906041435 | 54 | 0 | 0.0 | 0.0 | 0.00 | 0.03 | 0.00 | 88 | 1020.8 |
| 20260906040935 | 54 | 0 | 0.0 | 0.0 | 0.00 | 0.03 | 0.00 | 88 | 1020.8 |
| 20260906040435 | 54 | 0 | 0.0 | 0.0 | 0.00 | 0.03 | 0.00 | 88 | 1020.6 |
| 20260906034936 | 54 | 0 | 0.0 | 0.0 | 0.00 | 0.03 | 0.00 | 88 | 1020.5 |
| 20260906033936 | 54 | 0 | 0.0 | 0.0 | 0.00 | 0.03 | 0.00 | 88 | 1020.4 |
| 20260906033436 | 54 | 0 | 0.0 | 0.0 | 0.00 | 0.03 | 0.00 | 88 | 1020.4 |
| 20260906032935 | 54 | 0 | 0.0 | 0.0 | 0.00 | 0.03 | 0.00 | 88 | 1020.4 |
| 20260906032436 | 54 | 0 | 0.0 | 0.0 | 0.00 | 0.03 | 0.00 | 88 | 1020.4 |
| 20260906031938 | 54 | 0 | 0.0 | 0.0 | 0.00 | 0.03 | 0.00 | 88 | 1020.4 |
| 20260906031436 | 54 | 0 | 0.0 | 0.0 | 0.00 | 0.03 | 0.00 | 88 | 1020.4 |
| 20260906030936 | 54 | 0 | 0.0 | 0.0 | 0.00 | 0.03 | 0.00 | 88 | 1020.3 |
| 20260906030437 | 55 | 0 | 0.0 | 0.0 | 0.00 | 0.03 | 0.00 | 88 | 1020.2 |
| 20260906025936 | 55 | 0 | 0.0 | 0.0 | 0.00 | 0.03 | 0.00 | 88 | 1020.2 |
| 20260906025436 | 55 | 0 | 0.0 | 0.0 | 0.00 | 0.03 | 0.00 | 88 | 1020.1 |
| 20260906024936 | 55 | 0 | 0.0 | 0.0 | 0.00 | 0.03 | 0.00 | 88 | 1020.1 |
| 20260906024436 | 55 | 0 | 0.0 | 0.0 | 0.00 | 0.03 | 0.00 | 88 | 1020.1 |
| 20260906023936 | 55 | 0 | 0.0 | 0.0 | 0.00 | 0.03 | 0.00 | 88 | 1020.1 |
| 20260906023436 | 55 | 0 | 0.0 | 0.0 | 0.00 | 0.03 | 0.00 | 88 | 1019.9 |
| 20260906022936 | 55 | 0 | 0.0 | 0.0 | 0.00 | 0.03 | 0.00 | 88 | 1020.0 |
| 20260906022436 | 55 | 0 | 0.0 | 0.0 | 0.00 | 0.03 | 0.00 | 89 | 1019.9 |
| 20260906021936 | 55 | 0 | 0.0 | 0.0 | 0.00 | 0.03 | 0.00 | 89 | 1020.0 |
| 20260906020936 | 55 | 0 | 0.0 | 0.0 | 0.00 | 0.03 | 0.00 | 89 | 1019.9 |
| 20260906015938 | 55 | 0 | 0.0 | 0.0 | 0.00 | 0.03 | 0.00 | 89 | 1019.8 |
| 20260906015436 | 55 | 0 | 0.0 | 0.0 | 0.00 | 0.03 | 0.00 | 89 | 1019.9 |
| 20260906014936 | 55 | 0 | 0.0 | 0.0 | 0.00 | 0.03 | 0.00 | 89 | 1019.8 |
| 20260906014436 | 55 | 0 | 0.0 | 0.0 | 0.00 | 0.03 | 0.00 | 89 | 1019.8 |
| 20260906013938 | 55 | 0 | 0.0 | 0.0 | 0.00 | 0.03 | 0.00 | 90 | 1019.8 |
| 20260906013436 | 55 | 0 | 0.0 | 0.0 | 0.00 | 0.03 | 0.00 | 90 | 1019.7 |
| 20260906012936 | 56 | 0 | 0.0 | 0.0 | 0.00 | 0.03 | 0.00 | 90 | 1019.6 |
| 20260906012436 | 56 | 0 | 0.0 | 0.0 | 0.00 | 0.03 | 0.00 | 90 | 1019.5 |
| 20260906011936 | 56 | 0 | 0.0 | 0.0 | 0.00 | 0.03 | 0.00 | 90 | 1019.5 |
| 20260906010937 | 56 | 0 | 0.0 | 0.0 | 0.00 | 0.03 | 0.00 | 90 | 1019.6 |
| 20260906005937 | 56 | 0 | 0.0 | 0.0 | 0.00 | 0.04 | 0.00 | 91 | 1019.5 |
| 20260906004937 | 56 | 0 | 0.0 | 0.0 | 0.00 | 0.05 | 0.00 | 91 | 1019.5 |
| 20260906004437 | 56 | 0 | 0.0 | 0.0 | 0.00 | 0.05 | 0.00 | 91 | 1019.5 |
| 20260906003937 | 56 | 0 | 0.0 | 0.0 | 0.00 | 0.05 | 0.00 | 92 | 1019.5 |
| 20260906003437 | 56 | 0 | 0.0 | 0.0 | 0.00 | 0.05 | 0.00 | 92 | 1019.5 |
| 20260906002936 | 56 | 0 | 0.0 | 0.0 | 0.00 | 0.05 | 0.00 | 93 | 1019.5 |
| 20260906002437 | 56 | 0 | 0.0 | 0.0 | 0.00 | 0.05 | 0.00 | 93 | 1019.4 |
| 20260906001936 | 56 | 0 | 0.0 | 0.0 | 0.00 | 0.05 | 0.00 | 93 | 1019.4 |
| 20260906001436 | 56 | 0 | 0.0 | 0.0 | 0.00 | 0.05 | 0.00 | 93 | 1019.4 |
| 20260906000936 | 55 | 0 | 0.0 | 0.0 | 0.00 | 0.05 | 0.00 | 93 | 1019.4 |
| 20260906000436 | 55 | 0 | 0.0 | 0.0 | 0.00 | 0.05 | 0.00 | 93 | 1019.4 |
| 20260905235937 | 55 | 0 | 0.0 | 0.0 | 0.00 | 0.05 | 0.00 | 93 | 1019.4 |
| 20260905235437 | 55 | 0 | 0.0 | 0.0 | 0.00 | 0.05 | 0.00 | 93 | 1019.4 |
| 20260905234938 | 55 | 0 | 0.0 | 0.0 | 0.00 | 0.05 | 0.00 | 93 | 1019.4 |
| 20260905234436 | 55 | 0 | 0.0 | 0.0 | 0.00 | 0.05 | 0.00 | 93 | 1019.3 |
| 20260905233936 | 55 | 0 | 0.0 | 0.0 | 0.00 | 0.05 | 0.00 | 94 | 1019.3 |
| 20260905232938 | 56 | 0 | 0.0 | 0.0 | 0.00 | 0.05 | 0.00 | 94 | 1019.4 |
| 20260905232436 | 55 | 0 | 0.0 | 0.0 | 0.00 | 0.05 | 0.00 | 94 | 1019.4 |
| 20260905231936 | 55 | 0 | 0.0 | 0.0 | 0.00 | 0.05 | 0.00 | 94 | 1019.5 |
| 20260905230937 | 55 | 0 | 0.0 | 0.0 | 0.00 | 0.05 | 0.00 | 94 | 1019.4 |
| 20260905230437 | 55 | 0 | 0.0 | 0.0 | 0.00 | 0.05 | 0.00 | 94 | 1019.3 |
| 20260905225939 | 55 | 0 | 0.0 | 0.0 | 0.00 | 0.05 | 0.00 | 94 | 1019.2 |
| 20260905224438 | 55 | 0 | 0.0 | 0.0 | 0.00 | 0.05 | 0.00 | 94 | 1019.1 |
| 20260905223937 | 55 | 0 | 0.0 | 0.0 | 0.00 | 0.05 | 0.00 | 94 | 1019.0 |
| 20260905222939 | 55 | 0 | 0.0 | 0.0 | 0.00 | 0.05 | 0.00 | 94 | 1019.0 |